Clinton, OK

5:34 AM CST on February 08, 2016 (GMT -0600)
Clinton Municipal

Weather History for KCLK - October, 2013

Change the Weather History Date:

Friday, October 25, 2013

  Actual Average (KCSM) Record (KCSM)
Temperature  
Mean Temperature 48 °F -  
Max Temperature 62 °F 66 °F 91 °F (2014)
Min Temperature 35 °F 46 °F 30 °F (1997)
Degree Days  
Heating Degree Days 16    
Moisture  
Dew Point 36 °F    
Average Humidity 63    
Maximum Humidity 87    
Minimum Humidity 42    
Precipitation  
Precipitation 0.00 in - - ()
Sea Level Pressure  
Sea Level Pressure 30.34 in    
Wind  
Wind Speed 9 mph (SE)    
Max Wind Speed 15 mph    
Max Gust Speed 20 mph    
Visibility 9 miles    
Events      
Averages and records for this station are not official NWS values.
T = Trace of Precipitation, MM = Missing Value Source: NWS Daily Summary

Daily Weather History Graph

Daily Weather History Graph

Search for Another Location

Airport or City:

Trip Planner

Search our weather history database for the weather conditions in past years. The results will help you decide how hot, cold, wet, or windy it might be!

Date:

Astronomy

Oct. 25, 2013 Rise Set
Actual Time 7:51 AM CDT 6:47 PM CDT
Civil Twilight 7:25 AM CDT 7:13 PM CDT
Nautical Twilight 6:55 AM CDT 7:43 PM CDT
Astronomical Twilight 6:25 AM CDT 8:13 PM CDT
Moon No Moon Rise 1:29 PM CDT (10/25)
Length of Visible Light 11h 48m
Length of Day
10h 56m
Waning Gibbous, 62% of the Moon is Illuminated
Oct 25
Waning Gibbous
Oct 26
Last Quarter
Nov 3
New
Nov 9
First Quarter
Nov 17
Full

Hourly Weather History & Observations

Time (CDT) Temp. Windchill Dew Point Humidity Pressure Visibility Wind Dir Wind Speed Gust Speed Precip Events Conditions
12:15 AM 41.0 °F 34.7 °F 32.0 °F 70% 30.39 in 7.0 mi NE 10.4 mph - N/A   Clear
12:35 AM 41.0 °F 35.2 °F 32.0 °F 70% 30.39 in 5.0 mi NE 9.2 mph - N/A   Clear
12:55 AM 39.2 °F 33.0 °F 32.0 °F 75% 30.39 in 7.0 mi NE 9.2 mph - N/A   Clear
1:15 AM 39.2 °F 33.0 °F 32.0 °F 75% 30.39 in 7.0 mi NE 9.2 mph - N/A   Clear
1:35 AM 39.2 °F 34.2 °F 32.0 °F 75% 30.39 in 10.0 mi ENE 6.9 mph - N/A   Clear
1:55 AM 39.2 °F 33.6 °F 32.0 °F 75% 30.39 in 10.0 mi ENE 8.1 mph - N/A   Clear
2:15 AM 39.2 °F 33.0 °F 32.0 °F 75% 30.40 in 10.0 mi ENE 9.2 mph - N/A   Clear
2:35 AM 37.4 °F 32.1 °F 32.0 °F 81% 30.40 in 10.0 mi ENE 6.9 mph - N/A   Clear
2:55 AM 37.4 °F 32.1 °F 32.0 °F 81% 30.40 in 10.0 mi ENE 6.9 mph - N/A   Clear
3:15 AM 37.4 °F 31.4 °F 32.0 °F 81% 30.40 in 7.0 mi ENE 8.1 mph - N/A   Clear
3:35 AM 37.4 °F 32.1 °F 32.0 °F 81% 30.40 in 10.0 mi ENE 6.9 mph - N/A   Clear
3:55 AM 37.4 °F 31.4 °F 32.0 °F 81% 30.40 in 10.0 mi ENE 8.1 mph - N/A   Clear
4:15 AM 37.4 °F 32.8 °F 32.0 °F 81% 30.41 in 10.0 mi ENE 5.8 mph - N/A   Clear
4:35 AM 35.6 °F 31.7 °F 32.0 °F 87% 30.41 in 10.0 mi East 4.6 mph - N/A   Clear
4:55 AM 35.6 °F 31.7 °F 32.0 °F 87% 30.41 in 7.0 mi ENE 4.6 mph - N/A   Clear
5:15 AM 35.6 °F 31.7 °F 32.0 °F 87% 30.41 in 5.0 mi NE 4.6 mph - N/A   Haze
5:35 AM 35.6 °F 30.7 °F 32.0 °F 87% 30.42 in 4.0 mi ENE 5.8 mph - N/A   Haze
5:55 AM 35.6 °F - 32.0 °F 87% 30.42 in 1.5 mi Calm Calm - N/A   Haze
6:15 AM 35.6 °F - 32.0 °F 87% 30.43 in 7.0 mi Calm Calm - N/A   Scattered Clouds
6:35 AM 35.6 °F 30.7 °F 30.2 °F 81% 30.43 in 10.0 mi ESE 5.8 mph - N/A   Clear
6:55 AM 35.6 °F 29.2 °F 30.2 °F 81% 30.43 in 10.0 mi ESE 8.1 mph - N/A   Clear
7:15 AM 37.4 °F 33.8 °F 30.2 °F 75% 30.43 in 10.0 mi ESE 4.6 mph - N/A   Scattered Clouds
7:35 AM 37.4 °F 33.8 °F 30.2 °F 75% 30.42 in 10.0 mi East 4.6 mph - N/A   Mostly Cloudy
7:55 AM 37.4 °F 33.8 °F 30.2 °F 75% 30.42 in 10.0 mi East 4.6 mph - N/A   Mostly Cloudy
8:15 AM 39.2 °F 37.0 °F 30.2 °F 70% 30.42 in 10.0 mi East 3.5 mph - N/A   Overcast
8:35 AM 41.0 °F 39.0 °F 30.2 °F 65% 30.42 in 10.0 mi East 3.5 mph - N/A   Overcast
8:55 AM 41.0 °F 39.0 °F 30.2 °F 65% 30.43 in 10.0 mi East 3.5 mph - N/A   Overcast
9:15 AM 42.8 °F 41.1 °F 30.2 °F 61% 30.43 in 10.0 mi East 3.5 mph - N/A   Overcast
9:35 AM 42.8 °F 40.1 °F 30.2 °F 61% 30.43 in 10.0 mi East 4.6 mph - N/A   Overcast
9:55 AM 44.6 °F 39.7 °F 28.4 °F 53% 30.44 in 10.0 mi ESE 9.2 mph - N/A   Overcast
10:15 AM 44.6 °F 40.2 °F 28.4 °F 53% 30.44 in 10.0 mi ESE 8.1 mph - N/A   Overcast
10:35 AM 46.4 °F 42.4 °F 28.4 °F 50% 30.44 in 10.0 mi SE 8.1 mph - N/A   Overcast
10:55 AM 46.4 °F 42.4 °F 30.2 °F 53% 30.43 in 10.0 mi SE 8.1 mph - N/A   Overcast
11:15 AM 48.2 °F - 32.0 °F 54% 30.42 in 10.0 mi SE 10.4 mph - N/A   Overcast
11:35 AM 50.0 °F - 32.0 °F 50% 30.43 in 10.0 mi SSE 11.5 mph - N/A   Overcast
11:55 AM 51.8 °F - 32.0 °F 47% 30.41 in 10.0 mi SSE 12.7 mph - N/A   Overcast
12:15 PM 51.8 °F - 32.0 °F 47% 30.40 in 10.0 mi SSE 11.5 mph - N/A   Overcast
12:35 PM 53.6 °F - 33.8 °F 47% 30.39 in 10.0 mi South 11.5 mph - N/A   Overcast
12:55 PM 53.6 °F - 33.8 °F 47% 30.39 in 10.0 mi SSE 13.8 mph - N/A   Overcast
1:15 PM 53.6 °F - 33.8 °F 47% 30.38 in 10.0 mi South 11.5 mph - N/A   Overcast
1:35 PM 55.4 °F - 35.6 °F 47% 30.36 in 10.0 mi SSE 11.5 mph 18.4 mph N/A   Mostly Cloudy
1:55 PM 55.4 °F - 35.6 °F 47% 30.34 in 10.0 mi South 10.4 mph 19.6 mph N/A   Scattered Clouds
2:15 PM 57.2 °F - 35.6 °F 44% 30.33 in 10.0 mi South 6.9 mph - N/A   Clear
2:35 PM 59.0 °F - 37.4 °F 45% 30.31 in 10.0 mi South 12.7 mph 16.1 mph N/A   Clear
2:55 PM 60.8 °F - 37.4 °F 42% 30.30 in 10.0 mi South 15.0 mph 19.6 mph N/A   Clear
3:15 PM 60.8 °F - 39.2 °F 45% 30.29 in 10.0 mi South 11.5 mph 16.1 mph N/A   Clear
3:35 PM 62.6 °F - 39.2 °F 42% 30.27 in 10.0 mi South 11.5 mph - N/A   Clear
3:55 PM 62.6 °F - 39.2 °F 42% 30.27 in 10.0 mi SSW 12.7 mph 17.3 mph N/A   Clear
4:15 PM 60.8 °F - 41.0 °F 48% 30.26 in 10.0 mi South 15.0 mph 18.4 mph N/A   Clear
4:35 PM 60.8 °F - 41.0 °F 48% 30.25 in 10.0 mi South 13.8 mph - N/A   Clear
4:55 PM 62.6 °F - 41.0 °F 45% 30.24 in 10.0 mi South 13.8 mph - N/A   Clear
5:15 PM 62.6 °F - 41.0 °F 45% 30.24 in 10.0 mi South 13.8 mph 18.4 mph N/A   Clear
5:35 PM 62.6 °F - 41.0 °F 45% 30.23 in 10.0 mi SSE 15.0 mph - N/A   Clear
5:55 PM 62.6 °F - 41.0 °F 45% 30.22 in 10.0 mi South 15.0 mph - N/A   Clear
6:15 PM 60.8 °F - 41.0 °F 48% 30.22 in 10.0 mi South 13.8 mph - N/A   Clear
6:35 PM 60.8 °F - 41.0 °F 48% 30.21 in 10.0 mi South 11.5 mph - N/A   Clear
6:55 PM 59.0 °F - 41.0 °F 51% 30.21 in 10.0 mi South 12.7 mph - N/A   Clear
7:15 PM 57.2 °F - 42.8 °F 59% 30.20 in 10.0 mi South 11.5 mph - N/A   Clear
7:35 PM 55.4 °F - 42.8 °F 63% 30.20 in 10.0 mi SSE 9.2 mph - N/A   Clear
7:55 PM 53.6 °F - 42.8 °F 67% 30.21 in 10.0 mi SE 8.1 mph - N/A   Scattered Clouds
8:15 PM 53.6 °F - 42.8 °F 67% 30.21 in 10.0 mi SE 9.2 mph - N/A   Mostly Cloudy
8:35 PM 55.4 °F - 42.8 °F 63% 30.20 in 10.0 mi SE 11.5 mph - N/A   Scattered Clouds
8:55 PM 55.4 °F - 42.8 °F 63% 30.21 in 10.0 mi SSE 10.4 mph - N/A   Scattered Clouds
9:15 PM 53.6 °F - 42.8 °F 67% 30.21 in 10.0 mi SSE 10.4 mph - N/A   Scattered Clouds
9:35 PM 53.6 °F - 42.8 °F 67% 30.22 in 10.0 mi SSE 9.2 mph - N/A   Scattered Clouds
9:55 PM 53.6 °F - 42.8 °F 67% 30.22 in 10.0 mi SSE 10.4 mph - N/A   Clear
10:15 PM 53.6 °F - 42.8 °F 67% 30.23 in 10.0 mi SSE 10.4 mph - N/A   Clear
10:35 PM 51.8 °F - 42.8 °F 71% 30.22 in 10.0 mi SSE 10.4 mph - N/A   Scattered Clouds
10:55 PM 51.8 °F - 42.8 °F 71% 30.22 in 10.0 mi SSE 10.4 mph - N/A   Scattered Clouds
11:15 PM 51.8 °F - 42.8 °F 71% 30.22 in 10.0 mi SSE 10.4 mph - N/A   Clear
11:35 PM 51.8 °F - 42.8 °F 71% 30.22 in 10.0 mi SSE 10.4 mph - N/A   Clear
11:55 PM 53.6 °F - 42.8 °F 67% 30.21 in 10.0 mi SSE 10.4 mph - N/A   Clear